Crane Lake, MN

7:50 AM CDT on April 23, 2017 (GMT -0500)
Crane Lake

Weather History for KCDD - August, 2013

Change the Weather History Date:

Thursday, August 1, 2013

  Actual Average Record
Temperature  
Mean Temperature 60 °F -  
Max Temperature 73 °F 74 °F 89 °F (2005)
Min Temperature 46 °F 53 °F 33 °F (2002)
Degree Days  
Heating Degree Days 6    
Growing Degree Days 10 (Base 50)    
Moisture  
Dew Point 54 °F    
Average Humidity 81    
Maximum Humidity 100    
Minimum Humidity 50    
Precipitation  
Precipitation 0.06 in - - ()
Sea Level Pressure  
Sea Level Pressure 29.93 in    
Wind  
Wind Speed 1 mph (NW)    
Max Wind Speed 10 mph    
Max Gust Speed 16 mph    
Visibility 10 miles    
Events Rain , Thunderstorm    
Averages and records for this station are not official NWS values.
T = Trace of Precipitation, MM = Missing Value Source: NWS Daily Summary

Daily Weather History Graph

Daily Weather History Graph

Search for Another Location

Airport or City:

Trip Planner

Search our weather history database for the weather conditions in past years. The results will help you decide how hot, cold, wet, or windy it might be!

Date:

Astronomy

Aug. 01, 2013 Rise Set
Actual Time 5:45 AM CDT 8:45 PM CDT
Civil Twilight 5:08 AM CDT 9:22 PM CDT
Nautical Twilight 4:21 AM CDT 10:09 PM CDT
Astronomical Twilight 3:23 AM CDT 11:07 PM CDT
Moon 1:20 AM CDT (8/1) 4:58 PM CDT (8/1)
Length of Visible Light 16h 13m
Length of Day
15h 00m
Waning Crescent, 23% of the Moon is Illuminated
Aug 1
Waning Crescent
Aug 6
New
Aug 14
First Quarter
Aug 20
Full
Aug 28
Last Quarter

Hourly Weather History & Observations

Time (CDT) Temp. Dew Point Humidity Pressure Visibility Wind Dir Wind Speed Gust Speed Precip Events Conditions
12:12 AM 53.6 °F 50.0 °F 88% 29.95 in 10.0 mi Calm Calm - N/A   Clear
12:32 AM 53.6 °F 48.2 °F 82% 29.95 in 10.0 mi Calm Calm - N/A   Clear
12:52 AM 53.6 °F 48.2 °F 82% 29.94 in 10.0 mi Calm Calm - N/A   Clear
1:13 AM 51.8 °F 48.2 °F 88% 29.94 in 10.0 mi Calm Calm - N/A   Clear
1:32 AM 51.8 °F 46.4 °F 82% 29.94 in 10.0 mi Calm Calm - N/A   Clear
1:52 AM 50.0 °F 46.4 °F 87% 29.94 in 10.0 mi Calm Calm - N/A   Scattered Clouds
2:13 AM 50.0 °F 46.4 °F 87% 29.94 in 10.0 mi Calm Calm - N/A   Scattered Clouds
2:32 AM 50.0 °F 46.4 °F 87% 29.94 in 10.0 mi Calm Calm - N/A   Clear
2:52 AM 51.8 °F 50.0 °F 94% 29.94 in 10.0 mi Calm Calm - N/A   Mostly Cloudy
3:12 AM 53.6 °F 51.8 °F 94% 29.94 in 10.0 mi Calm Calm - N/A   Overcast
3:32 AM 53.6 °F 50.0 °F 88% 29.94 in 10.0 mi Calm Calm - N/A   Overcast
3:53 AM 53.6 °F 51.8 °F 94% 29.95 in 10.0 mi Calm Calm - N/A   Overcast
4:13 AM 53.6 °F 51.8 °F 94% 29.95 in 10.0 mi Calm Calm - N/A   Mostly Cloudy
4:32 AM 53.6 °F 50.0 °F 88% 29.95 in 10.0 mi WSW 3.5 mph - N/A   Scattered Clouds
4:52 AM 51.8 °F 48.2 °F 88% 29.95 in 10.0 mi Calm Calm - N/A   Scattered Clouds
5:13 AM - - N/A% 29.95 in 10.0 mi Calm Calm - N/A   Scattered Clouds
5:32 AM 51.8 °F 48.2 °F 88% 29.96 in 10.0 mi Calm Calm - N/A   Scattered Clouds
5:52 AM 48.2 °F 46.4 °F 93% 29.96 in 10.0 mi Calm Calm - N/A   Clear
6:12 AM 48.2 °F 46.4 °F 93% 29.97 in 10.0 mi Calm Calm - N/A   Clear
6:32 AM 46.4 °F 44.6 °F 93% 29.97 in 10.0 mi Calm Calm - N/A   Clear
6:52 AM 46.4 °F 46.4 °F 100% 29.97 in 10.0 mi Calm Calm - N/A   Clear
7:12 AM 48.2 °F 46.4 °F 93% 29.97 in 10.0 mi Calm Calm - N/A   Clear
7:32 AM 53.6 °F 51.8 °F 94% 29.97 in 10.0 mi Calm Calm - N/A   Clear
7:52 AM 55.4 °F 53.6 °F 94% 29.97 in 10.0 mi Calm Calm - N/A   Clear
8:13 AM 55.4 °F 55.4 °F 100% 29.97 in 10.0 mi Calm Calm - N/A   Clear
8:32 AM 60.8 °F 57.2 °F 88% 29.97 in 10.0 mi Calm Calm - N/A   Clear
8:52 AM 62.6 °F 60.8 °F 94% 29.96 in 10.0 mi Calm Calm - N/A   Clear
9:12 AM 64.4 °F 59.0 °F 83% 29.97 in 10.0 mi NNW 3.5 mph - N/A   Clear
9:32 AM 66.2 °F 59.0 °F 78% 29.96 in 10.0 mi Calm Calm - N/A   Clear
9:52 AM 66.2 °F 59.0 °F 78% 29.96 in 10.0 mi Calm Calm - N/A   Clear
10:12 AM 68.0 °F 55.4 °F 64% 29.96 in 10.0 mi West 3.5 mph - N/A   Clear
10:33 AM 68.0 °F 55.4 °F 64% 29.95 in 10.0 mi NNW 6.9 mph - N/A   Scattered Clouds
10:52 AM 69.8 °F 55.4 °F 60% 29.95 in 10.0 mi Calm Calm - N/A   Scattered Clouds
11:12 AM 69.8 °F 53.6 °F 56% 29.95 in 10.0 mi North 6.9 mph - N/A   Scattered Clouds
11:33 AM 69.8 °F 53.6 °F 56% 29.95 in 10.0 mi West 4.6 mph - N/A   Scattered Clouds
11:52 AM 69.8 °F 53.6 °F 56% 29.95 in 10.0 mi NNW 5.8 mph - N/A   Mostly Cloudy
12:13 PM 71.6 °F 51.8 °F 50% 29.95 in 10.0 mi NNW 5.8 mph - N/A   Scattered Clouds
12:32 PM 69.8 °F 51.8 °F 53% 29.94 in 10.0 mi West 5.8 mph - N/A   Mostly Cloudy
12:52 PM 68.0 °F 51.8 °F 56% 29.94 in 10.0 mi Calm Calm - N/A   Overcast
1:12 PM 66.2 °F 51.8 °F 60% 29.94 in 10.0 mi WSW 4.6 mph - N/A   Overcast
1:32 PM 66.2 °F 53.6 °F 64% 29.93 in 10.0 mi Calm Calm - N/A   Overcast
1:52 PM 68.0 °F 55.4 °F 64% 29.93 in 10.0 mi Calm Calm - N/A   Mostly Cloudy
2:12 PM 66.2 °F 53.6 °F 64% 29.95 in 4.0 mi SW 8.1 mph - 0.02 in Rain Heavy Rain
2:33 PM 59.0 °F 55.4 °F 88% 29.93 in 10.0 mi Calm Calm - 0.05 in Rain Light Rain
2:52 PM 60.8 °F 55.4 °F 82% 29.93 in 7.0 mi Calm Calm - 0.05 in Rain Rain
3:12 PM 62.6 °F 59.0 °F 88% 29.92 in 10.0 mi Calm Calm - 0.01 in Rain Light Rain
3:33 PM 66.2 °F 62.6 °F 88% 29.91 in 10.0 mi Calm Calm - 0.01 in   Scattered Clouds
3:52 PM 66.2 °F 62.6 °F 88% 29.91 in 10.0 mi Calm Calm - 0.01 in   Scattered Clouds
4:12 PM 69.8 °F 62.6 °F 78% 29.90 in 10.0 mi Calm Calm - N/A   Scattered Clouds
4:32 PM 71.6 °F 60.8 °F 69% 29.89 in 10.0 mi Calm Calm - N/A   Clear
4:52 PM 71.6 °F 66.2 °F 83% 29.88 in 10.0 mi Calm Calm - N/A   Clear
5:12 PM 73.4 °F 66.2 °F 78% 29.88 in 10.0 mi Calm Calm - N/A   Scattered Clouds
5:32 PM 73.4 °F 64.4 °F 73% 29.88 in 10.0 mi Calm Calm - N/A   Scattered Clouds
5:52 PM 69.8 °F 62.6 °F 78% 29.88 in 10.0 mi NNW 5.8 mph - N/A Thunderstorm Mostly Cloudy
6:12 PM 71.6 °F 62.6 °F 73% - 10.0 mi NNE 5.8 mph - N/A   Scattered Clouds
6:32 PM 69.8 °F 60.8 °F 73% 29.87 in 10.0 mi Calm Calm - N/A   Mostly Cloudy
6:53 PM 66.2 °F 60.8 °F 83% 29.86 in 10.0 mi Calm Calm - N/A   Unknown
7:13 PM 66.2 °F 57.2 °F 73% 29.86 in 10.0 mi Calm Calm - N/A Thunderstorm Thunderstorm
7:33 PM 64.4 °F 57.2 °F 77% 29.86 in 10.0 mi North 4.6 mph - N/A Rain , Thunderstorm Light Thunderstorms and Rain
7:52 PM 62.6 °F 55.4 °F 77% 29.86 in 10.0 mi Calm Calm - N/A Thunderstorm Mostly Cloudy
8:13 PM 62.6 °F 55.4 °F 77% 29.86 in 10.0 mi Calm Calm - N/A Thunderstorm Scattered Clouds
8:32 PM 59.0 °F 53.6 °F 82% 29.86 in 10.0 mi Calm Calm - N/A   Scattered Clouds
8:52 PM 57.2 °F 53.6 °F 88% 29.87 in 10.0 mi Calm Calm - N/A   Mostly Cloudy
9:12 PM 57.2 °F 55.4 °F 94% 29.89 in 10.0 mi North 10.4 mph 16.1 mph N/A Thunderstorm Thunderstorm
9:32 PM 57.2 °F 51.8 °F 82% 29.89 in 10.0 mi NE 3.5 mph - N/A Thunderstorm Unknown
9:52 PM 53.6 °F 48.2 °F 82% 29.89 in 10.0 mi Calm Calm - N/A Thunderstorm Scattered Clouds
10:12 PM 53.6 °F 51.8 °F 94% 29.90 in 10.0 mi Calm Calm - N/A   Scattered Clouds
10:32 PM 53.6 °F 51.8 °F 94% 29.90 in 10.0 mi Calm Calm - N/A   Overcast
10:52 PM 53.6 °F 51.8 °F 94% 29.89 in 10.0 mi Calm Calm - N/A   Mostly Cloudy
11:12 PM 53.6 °F 51.8 °F 94% 29.87 in 10.0 mi Calm Calm - N/A   Light Drizzle
11:32 PM 53.6 °F 50.0 °F 88% 29.87 in 10.0 mi Calm Calm - N/A   Clear
11:52 PM 51.8 °F 48.2 °F 88% 29.87 in 10.0 mi Calm Calm - N/A   Clear